Tracking 29892 objects as of 21-Nov-2024
HD Live streaming from Space Station
objects crossing your sky now

STARLINK-31554

Track STARLINK-31554 now!
10-day predictions
STARLINK-31554 is classified as:


NORAD ID: 59195
Int'l Code: 2024-045T
Perigee: 450.0 km
Apogee: 452.6 km
Inclination: 43.0 °
Period: 93.5 minutes
Semi major axis: 6822 km
RCS: Unknown
Launch date: March 10, 2024
Source: United States (US)
Launch site: AIR FORCE EASTERN TEST RANGE (AFETR)
Your satellite tracking list
Your tracking list is empty




NASA's NSSDC Master Catalog

Two Line Element Set (TLE):
1 59195U 24045T   24326.14956441 -.00007159  00000-0 -16443-3 0  9990
2 59195  43.0018 256.0132 0001893 261.2742  98.7900 15.40670434 40631
Source of the keplerian elements: AFSPC